STARLINK-1726, 46362

Orbit data source: Space-Track

STARLINK-1726, 46362 is a payload satellite in LEO that was launched on Thu, 03 Sep 2020 UTC via an FALCON 9 launch vehicle from the Air Force Eastern Test Range (AFETR). Payload-class satellites include a variety of spacecraft equipped with specific instruments for various scientific and technological missions. These include communications satellites like Starlink; space stations such as the ISS; scientific satellites like the Hubble; Earth observation satellites from companies like Planet Labs, Umbra, and HawkEye 360; GPS; miniature CubeSats for education and research; and military/defense satellites.

Loading next visibility...
Identifier
46362, 2020-062AP
Orbit
LEO
Last TLE update
13 hours ago
Origin
Manufacturer
SpaceX/Seattle
Mission
Operational Commercial Communications
Bus & Motor
STARLINK, Unknown motor
Mass
260 kg wet, ~248 kg dry
Launch date (UTC)
2020-09-03 (5 years ago)
Launch vehicle
FALCON 9
Launch site
Air Force Eastern Test Range (AFETR)
Object type
Payload
Rocket body
Debris
Shape & HBR
Box + 1 Pan, 8.86 m
Radar Cross Section
13.562 m², Large (>1 m²)

Expand to show TLE details & history

TLE from 13 hours ago
0 STARLINK-1726
1 46362U 20062AP  25138.93255202  .00001748  00000-0  13624-3 0  9997
2 46362  53.0524 214.8325 0001344  96.3915 263.7227 15.06397920260517
Epoch: 2025-05-18T22:22Z
TLE epoch observation values (Epoch: 2025-05-18T22:22:52.494Z)
Latitude
-0.00003°
Longitude
2.26133°
Altitude
548.199 km
Speed
7.589 km/s
True Right ascension
14h 19m 19s
True Declination
0° 00' 00"
Sunlit
Object was in full shadow at epoch
Visualization orbit readout
Latitude
25.2167°
Longitude
20.47621°
Altitude
547.826 km
Speed
7.592 km/s
Apparent Right ascension
12h 29m 36s
Apparent Declination
-10° 08' 06"
Sunlit
Object is in full shadow
Visualization observer readout
Local Sidereal Time
20:04:44
Azimuth
277.572° WNW
Elevation
-24.669°
Doppler factor
1
Orbital elements
Apogee altitude
548.42 km
Perigee altitude
546.558 km
Semi-major axis
6,925.626 km
Eccentricity
0.00013
Inclination
53.0524°
RAAN
214.8325°
Arg. of periapsis
96.3915°
True anomaly
Unknown
Mean anomaly
263.7227°
Eccentric anomaly
Unknown
Mean motion
3.76578 °/min
Orbital period
95.6 mins
BSTAR
0.00013624
Loading maneuver chart data...
Loading SW <> Apogee altitude chart data...
Loading historical data...
Loading historical data...
Loading historical data...
Loading historical data...
Loading historical data...
Loading historical data...
Loading historical data...

STARLINK-1726 Visibility forecast

Observer location: undefined°, undefined°

Span
Click to sort rows by Start time (UTC) header in descending order
Start Az.
Max El. time (UTC)
Max El. Az.
Max El.
End time (UTC)
End Az.
4 mins2025-05-19 13:10:41.223Z348.987° N2025-05-19 13:12:41.223Z31.046° NE21.459°2025-05-19 13:14:41.223Z67.573° E
6 mins2025-05-19 14:49:41.223Z303.956° NW2025-05-19 14:52:41.223Z170.69° S42.314°2025-05-19 14:55:41.223Z138.334° SSE
4 mins2025-05-20 06:23:41.223Z157.571° S2025-05-20 06:25:41.223Z117.955° SE19.082°2025-05-20 06:27:41.223Z85.421° E
6 mins2025-05-20 08:01:41.223Z251.061° W2025-05-20 08:04:41.223Z341.701° N38.907°2025-05-20 08:07:41.223Z40.405° NE
|